Location: Waco, TX
(31.5480°N, 97.1670°W)
Time: 03:25:10
(UTC-05:00)

ISS - Pass Details

Date: 17 May 2018
Orbit: 402 x 407 km, 51.6° (Epoch: 23 May)

Event Time Altitude Azimuth Distance (km) Brightness Sun altitude
Rises 06:35:53 0° 324° (NW) 2,314 -0.1 0.1°
Reaches altitude 10° 06:38:07 10° 335° (NNW) 1,453 -1.0 0.6°
Maximum altitude 06:41:03 31° 40° (NE) 737 -1.6 1.2°
Drops below altitude 10° 06:43:59 10° 105° (ESE) 1,449 0.0 1.7°
Sets 06:46:12 0° 116° (ESE) 2,306 0.7 2.2°
